Location: Izdebno
(52.6670°N, 16.2170°E)
Time: 14:45:50
(UTC+01:00)

Vanguard 2 - Pass Details

Date: 31 January 2023
Orbit: 553 x 2927 km, 32.9° (Epoch: 24 March)

Event Time Altitude Azimuth Distance (km) Brightness Sun altitude
Rises 03:13:52 0° 265° (W) 6,740 - -39.7°
Reaches altitude 10° 03:19:16 10° 255° (WSW) 5,762 - -38.9°
Maximum altitude 03:32:37 28° 206° (SSW) 4,135 - -37.1°
Exits shadow 03:36:04 26° 188° (S) 4,099 10.9 -36.6°
Drops below altitude 10° 03:43:49 10° 155° (SSE) 4,775 11.6 -35.5°
Sets 03:47:47 0° 144° (SE) 5,446 12.1 -34.9°
